| time (UTC) | temp F | wind direction | speed MPH | gust MPH | rain 1hr in | rain 24hr in | rain mn in | humidity % | barometer mb |
| 20260509191601 | 59 | 348 | 13.0 | 22.0 | 0.00 | 0.00 | 0.00 | 42 | 1017.5 |
| 20260509190054 | 58 | 306 | 10.0 | 18.0 | 0.00 | 0.00 | 0.00 | 43 | 1017.5 |
| 20260509184551 | 57 | 313 | 12.0 | 30.0 | 0.00 | 0.00 | 0.00 | 44 | 1017.6 |
| 20260509183102 | 57 | 319 | 15.0 | 19.0 | 0.00 | 0.00 | 0.00 | 44 | 1017.6 |
| 20260509181549 | 56 | 354 | 7.0 | 18.0 | 0.00 | 0.00 | 0.00 | 45 | 1017.5 |
| 20260509180044 | 55 | 337 | 5.0 | 20.0 | 0.00 | 0.00 | 0.00 | 45 | 1017.5 |
| 20260509174549 | 55 | 348 | 13.0 | 18.0 | 0.00 | 0.00 | 0.00 | 45 | 1017.4 |
| 20260509173043 | 54 | 353 | 7.0 | 19.0 | 0.00 | 0.00 | 0.00 | 48 | 1017.4 |
| 20260509171543 | 53 | 333 | 10.0 | 14.0 | 0.00 | 0.00 | 0.00 | 49 | 1017.4 |
| 20260509170034 | 53 | 317 | 10.0 | 15.0 | 0.00 | 0.00 | 0.00 | 50 | 1017.3 |
| 20260509164531 | 52 | 348 | 6.0 | 14.0 | 0.00 | 0.00 | 0.00 | 53 | 1017.2 |
| 20260509163041 | 51 | 11 | 7.0 | 15.0 | 0.00 | 0.00 | 0.00 | 53 | 1017.2 |
| 20260509161627 | 51 | 360 | 9.0 | 14.0 | 0.00 | 0.00 | 0.00 | 53 | 1017.1 |
| 20260509160022 | 50 | 13 | 3.0 | 10.0 | 0.00 | 0.00 | 0.00 | 56 | 1017.1 |
| 20260509154519 | 49 | 312 | 3.0 | 12.0 | 0.00 | 0.00 | 0.00 | 59 | 1017.0 |
| 20260509153032 | 49 | 277 | 4.0 | 9.0 | 0.00 | 0.00 | 0.00 | 59 | 1017.2 |
| 20260509151518 | 49 | 1 | 0.0 | 7.0 | 0.00 | 0.00 | 0.00 | 59 | 1017.2 |
| 20260509150022 | 47 | 342 | 2.0 | 6.0 | 0.00 | 0.00 | 0.00 | 64 | 1017.1 |
| 20260509144509 | 47 | 347 | 3.0 | 8.0 | 0.00 | 0.00 | 0.00 | 65 | 1017.0 |
| 20260509143008 | 46 | 341 | 4.0 | 8.0 | 0.00 | 0.00 | 0.00 | 67 | 1016.9 |
| 20260509141506 | 45 | 17 | 6.0 | 10.0 | 0.00 | 0.00 | 0.00 | 69 | 1016.8 |
| 20260509140005 | 44 | 360 | 4.0 | 8.0 | 0.00 | 0.00 | 0.00 | 73 | 1016.6 |
| 20260509134500 | 43 | 339 | 4.0 | 8.0 | 0.00 | 0.00 | 0.00 | 72 | 1016.5 |
| 20260509133100 | 43 | 353 | 5.0 | 7.0 | 0.00 | 0.00 | 0.00 | 72 | 1016.5 |
| 20260509131558 | 42 | 358 | 2.0 | 4.0 | 0.00 | 0.00 | 0.00 | 75 | 1016.4 |
| 20260509130055 | 41 | 13 | 1.0 | 2.0 | 0.00 | 0.00 | 0.00 | 79 | 1016.3 |
| 20260509124552 | 40 | 13 | 0.0 | 3.0 | 0.00 | 0.00 | 0.00 | 80 | 1015.9 |
| 20260509123056 | 39 | 12 | 0.0 | 1.0 | 0.00 | 0.00 | 0.00 | 81 | 1015.7 |
| 20260509121541 | 38 | 12 | 0.0 | 2.0 | 0.00 | 0.00 | 0.00 | 80 | 1015.5 |
| 20260509120039 | 39 | 13 | 0.0 | 7.0 | 0.00 | 0.00 | 0.00 | 79 | 1015.1 |
| 20260509114535 | 39 | 8 | 5.0 | 8.0 | 0.00 | 0.00 | 0.00 | 79 | 1014.9 |
| 20260509113031 | 39 | 360 | 6.0 | 8.0 | 0.00 | 0.00 | 0.00 | 80 | 1014.6 |
| 20260509111529 | 39 | 12 | 7.0 | 8.0 | 0.00 | 0.00 | 0.00 | 81 | 1014.2 |
| 20260509110027 | 39 | 21 | 7.0 | 8.0 | 0.00 | 0.00 | 0.00 | 80 | 1014.1 |
| 20260509104524 | 39 | 19 | 6.0 | 8.0 | 0.00 | 0.00 | 0.00 | 80 | 1013.8 |
| 20260509103022 | 40 | 20 | 7.0 | 10.0 | 0.00 | 0.00 | 0.00 | 80 | 1013.6 |
| 20260509101520 | 40 | 22 | 7.0 | 8.0 | 0.00 | 0.00 | 0.00 | 81 | 1013.4 |
| 20260509100018 | 40 | 13 | 6.0 | 9.0 | 0.00 | 0.00 | 0.00 | 81 | 1013.4 |
| 20260509094516 | 40 | 18 | 7.0 | 9.0 | 0.00 | 0.00 | 0.00 | 82 | 1013.2 |
| 20260509093014 | 40 | 23 | 6.0 | 10.0 | 0.00 | 0.00 | 0.00 | 83 | 1013.0 |
| 20260509091511 | 40 | 17 | 7.0 | 10.0 | 0.00 | 0.00 | 0.00 | 84 | 1012.7 |
| 20260509090007 | 41 | 17 | 7.0 | 9.0 | 0.00 | 0.00 | 0.00 | 83 | 1012.6 |
| 20260509084504 | 41 | 19 | 9.0 | 14.0 | 0.00 | 0.00 | 0.00 | 83 | 1012.3 |
| 20260509083102 | 43 | 15 | 5.0 | 11.0 | 0.00 | 0.00 | 0.00 | 78 | 1012.1 |
| 20260509081557 | 44 | 42 | 3.0 | 5.0 | 0.00 | 0.00 | 0.00 | 78 | 1011.7 |
| 20260509080059 | 44 | 38 | 3.0 | 6.0 | 0.00 | 0.00 | 0.00 | 78 | 1011.6 |
| 20260509074604 | 45 | 37 | 4.0 | 7.0 | 0.00 | 0.00 | 0.00 | 78 | 1011.2 |
| 20260509073049 | 45 | 31 | 4.0 | 7.0 | 0.00 | 0.00 | 0.00 | 78 | 1011.0 |
| 20260509071559 | 45 | 39 | 7.0 | 9.0 | 0.00 | 0.00 | 0.00 | 79 | 1010.9 |
| 20260509070046 | 46 | 42 | 6.0 | 9.0 | 0.00 | 0.00 | 0.00 | 78 | 1010.8 |
| 20260509064542 | 46 | 49 | 6.0 | 8.0 | 0.00 | 0.00 | 0.00 | 79 | 1010.6 |
| 20260509063038 | 46 | 42 | 5.0 | 7.0 | 0.00 | 0.00 | 0.00 | 80 | 1010.5 |
| 20260509061536 | 48 | 38 | 4.0 | 8.0 | 0.00 | 0.00 | 0.00 | 77 | 1010.4 |
| 20260509060036 | 49 | 48 | 0.0 | 7.0 | 0.00 | 0.00 | 0.00 | 74 | 1010.2 |
| 20260509054531 | 50 | 56 | 3.0 | 6.0 | 0.00 | 0.00 | 0.00 | 72 | 1009.8 |
| 20260509053029 | 50 | 63 | 3.0 | 5.0 | 0.00 | 0.00 | 0.00 | 71 | 1009.4 |
| 20260509051528 | 50 | 56 | 3.0 | 6.0 | 0.00 | 0.00 | 0.00 | 70 | 1009.2 |
| 20260509050043 | 51 | 54 | 3.0 | 9.0 | 0.00 | 0.00 | 0.00 | 68 | 1009.0 |
| 20260509044526 | 51 | 59 | 6.0 | 10.0 | 0.00 | 0.00 | 0.00 | 67 | 1008.8 |
| 20260509043025 | 52 | 45 | 6.0 | 10.0 | 0.00 | 0.00 | 0.00 | 63 | 1008.6 |
| 20260509041525 | 53 | 53 | 6.0 | 15.0 | 0.00 | 0.00 | 0.00 | 62 | 1008.5 |
| 20260509040025 | 53 | 83 | 8.0 | 12.0 | 0.00 | 0.00 | 0.00 | 61 | 1008.4 |
| 20260509034525 | 54 | 57 | 5.0 | 14.0 | 0.00 | 0.00 | 0.00 | 59 | 1008.3 |
| 20260509033024 | 55 | 67 | 6.0 | 14.0 | 0.00 | 0.00 | 0.00 | 58 | 1008.2 |
| 20260509031531 | 57 | 63 | 11.0 | 19.0 | 0.00 | 0.00 | 0.00 | 51 | 1008.2 |
| 20260509030031 | 58 | 27 | 20.0 | 25.0 | 0.00 | 0.00 | 0.00 | 48 | 1008.0 |
| 20260509024534 | 59 | 32 | 16.0 | 23.0 | 0.00 | 0.00 | 0.00 | 47 | 1007.5 |
| 20260509023021 | 59 | 42 | 20.0 | 25.0 | 0.00 | 0.00 | 0.00 | 47 | 1007.5 |
| 20260509021521 | 60 | 15 | 11.0 | 18.0 | 0.00 | 0.00 | 0.00 | 47 | 1007.6 |
| 20260509020021 | 60 | 11 | 12.0 | 20.0 | 0.00 | 0.00 | 0.00 | 49 | 1007.5 |
| 20260509014520 | 60 | 5 | 12.0 | 15.0 | 0.00 | 0.00 | 0.00 | 53 | 1007.2 |
| 20260509013025 | 61 | 21 | 13.0 | 16.0 | 0.00 | 0.00 | 0.00 | 51 | 1006.8 |
| 20260509011519 | 61 | 33 | 16.0 | 21.0 | 0.00 | 0.00 | 0.00 | 50 | 1006.7 |
| 20260509010022 | 62 | 14 | 16.0 | 24.0 | 0.00 | 0.00 | 0.00 | 51 | 1006.9 |
| 20260509004519 | 63 | 344 | 11.0 | 19.0 | 0.00 | 0.00 | 0.00 | 48 | 1007.0 |
| 20260509003016 | 64 | 27 | 11.0 | 15.0 | 0.00 | 0.00 | 0.00 | 45 | 1006.0 |
| 20260509001516 | 66 | 12 | 8.0 | 12.0 | 0.00 | 0.00 | 0.00 | 42 | 1005.8 |
| 20260509000016 | 68 | 359 | 11.0 | 26.0 | 0.00 | 0.00 | 0.00 | 38 | 1006.2 |
| 20260508234515 | 68 | 262 | 14.0 | 36.0 | 0.00 | 0.00 | 0.00 | 33 | 1006.4 |
| 20260508233011 | 69 | 304 | 10.0 | 17.0 | 0.00 | 0.00 | 0.00 | 29 | 1006.1 |
| 20260508231510 | 70 | 328 | 7.0 | 11.0 | 0.00 | 0.00 | 0.00 | 29 | 1006.0 |
| 20260508230008 | 70 | 299 | 8.0 | 16.0 | 0.00 | 0.00 | 0.00 | 28 | 1006.2 |
| 20260508224507 | 70 | 302 | 13.0 | 21.0 | 0.00 | 0.00 | 0.00 | 29 | 1006.5 |
| 20260508223009 | 69 | 296 | 11.0 | 17.0 | 0.00 | 0.00 | 0.00 | 30 | 1006.7 |
| 20260508221501 | 68 | 316 | 9.0 | 17.0 | 0.00 | 0.00 | 0.00 | 31 | 1007.2 |
| 20260508220100 | 67 | 348 | 9.0 | 16.0 | 0.00 | 0.00 | 0.00 | 35 | 1007.5 |
| 20260508214610 | 66 | 301 | 11.0 | 26.0 | 0.00 | 0.00 | 0.00 | 35 | 1007.7 |
| 20260508213116 | 64 | 296 | 27.0 | 40.0 | 0.00 | 0.00 | 0.00 | 37 | 1008.0 |
| 20260508211559 | 69 | 314 | 23.0 | 28.0 | 0.00 | 0.00 | 0.00 | 28 | 1008.0 |
| 20260508210054 | 69 | 301 | 16.0 | 24.0 | 0.00 | 0.00 | 0.00 | 26 | 1008.0 |
| 20260508204604 | 68 | 263 | 20.0 | 26.0 | 0.00 | 0.00 | 0.00 | 27 | 1008.1 |
| 20260508203057 | 69 | 256 | 17.0 | 25.0 | 0.00 | 0.00 | 0.00 | 27 | 1008.3 |
| 20260508201601 | 69 | 270 | 20.0 | 26.0 | 0.00 | 0.00 | 0.00 | 26 | 1008.4 |
| 20260508200100 | 70 | 290 | 21.0 | 30.0 | 0.00 | 0.00 | 0.00 | 24 | 1008.4 |
| 20260508194548 | 69 | 262 | 17.0 | 27.0 | 0.00 | 0.00 | 0.00 | 27 | 1008.7 |
| 20260508193044 | 69 | 282 | 19.0 | 28.0 | 0.00 | 0.00 | 0.00 | 25 | 1009.0 |